FENGYUN 1C DEB, 31513

Orbit data source: Space-Track

FENGYUN 1C DEB, 31513 is space debris in SSO originally from a launch on Mon, 10 May 1999 UTC launched from the Taiyaun Space Center, China (TSC). Fengyun 1C debris stems from the Chinese weather satellite Fengyun-1C, which was intentionally destroyed by a Chinese anti-satellite missile in 2007. This event dramatically increased the amount of space debris, with thousands of trackable fragments posing hazards to satellites and human spaceflight. The Fengyun 1C debris cloud has become a focal point in discussions about space sustainability and the need for international regulations to prevent the creation of new debris.

Loading next visibility...
Identifier
31513, 1999-025BXC
Orbit
SSO
Country
Flag of CNCN / PRC
Related business
Manufacturer
Unknown
Mission
Spacecraft
Bus & Motor
Unknown
Mass
Unknown
Launch date (UTC)
1999-05-10 (27 years ago)
Launch vehicle
Unknown
Launch site
Taiyaun Space Center, China (TSC)
Object type
Payload
Rocket body
Debris
Shape & HBR
Unknown shape, 0.1 m
Radar Cross Section
Small (<0.1 m²)

Expand to show TLE details & history
Last TLE update: 5 days ago

TLE from 5 days ago
0 FENGYUN 1C DEB
1 31513U 99025BXC 26164.55022888  .00003760  00000-0  13440-2 0  9995
2 31513  98.8648 270.6062 0025456 308.7536  51.1373 14.34517423754881
Epoch: 2026-06-13T13:12Z
TLE epoch observation values (Epoch: 2026-06-13T13:12:19.775Z)
Latitude
-0.00003°
Longitude
170.6601°
Altitude
768.198 km
Speed
7.476 km/s
True Right ascension
18h 02m 25s
True Declination
0° 00' 00"
Sunlit
Object was in full shadow at epoch
Visualization orbit readout
Latitude
Unknown
Longitude
Unknown
Altitude
Unknown
Speed
Unknown
Apparent Right ascension
Unknown
Apparent Declination
Unknown
Sunlit
N/A
Visualization observer readout
Local Sidereal Time
10:30:55
Azimuth
Unknown
Elevation
Unknown
Doppler factor
Unknown
Orbital elements
Apogee altitude
792.023 km
Perigee altitude
755.611 km
Semi-major axis
7,151.954 km
Eccentricity
0.00255
Inclination
98.8648°
RAAN
270.6062°
Arg. of periapsis
308.7536°
True anomaly
51.36489°
Mean anomaly
51.1373°
Eccentric anomaly
51.25105°
Mean motion
3.58844 °/min
Orbital period
100.32 mins
BSTAR
0.001344
Loading maneuver chart data...
Computing Atmospheric mass density...

Documentation

Showing up to 5 results
|